This demonstration page uses our WeatherBlox Daily Observations layout. Learn more.

Left ArrowRight Arrow

Hourly Observations for September 6, 2019

Temp ( °F °C ) Dew Point ( °F °C ) Humidity (%) Winds ( mph kmh ) Pressure ( in mb ) Visibility ( mi km ) Precip ( " mm )
12:59 am 00:59 Mostly Cloudy 77 25 72 22.2 85 85 ENE 21 33 29.79 1009 10 16 0.00 0.00
1:31 am 01:31 Cloudy 77 25 72 22.2 85 85 ENE 22 35 29.77 1008 10 16 0.00 0.00
1:59 am 01:59 Cloudy 77 25 73 22.8 88 88 ENE 18 30 29.75 1008 10 16 0.00 0.00
2:59 am 02:59 Cloudy 77 25 73 22.8 88 88 ENE 22 35 29.72 1006 9 14 0.00 0.00
3:35 am 03:35 Cloudy with Light Rain 76 24.4 73 22.8 91 91 ENE 24 39 29.70 1006 6 10 0.00 0.00
3:59 am 03:59 Cloudy with Light Rain 75 23.9 74 23.3 96 96 ENE 20 31 29.68 1005 4 6 0.00 0.00
4:33 am 04:33 Cloudy 75 23.9 74 23.3 96 96 NE 22 35 29.66 1004 7 11 0.00 0.00
4:59 am 04:59 Mostly Cloudy with Light Rain 75 23.9 74 23.3 96 96 NE 20 31 29.64 1004 6 10 0.00 0.00
5:24 am 05:24 Cloudy with Rain 75 23.9 73 22.8 94 94 NE 21 33 29.64 1004 2 3 0.00 0.00
5:34 am 05:34 Cloudy with Light Rain 75 23.9 74 23.3 96 96 NE 23 37 29.63 1003 3 5 0.00 0.00
5:59 am 05:59 Cloudy with Light Rain 75 23.9 73 22.8 94 94 NE 28 44 29.62 1003 4 6 0.00 0.00
6:22 am 06:22 Cloudy with Rain 75 23.9 74 23.3 96 96 NE 29 46 29.61 1003 3 4 0.00 0.00
6:31 am 06:31 Cloudy with Light Rain 75 23.9 74 23.3 96 96 NE 25 41 29.61 1003 4 6 0.00 0.00
6:39 am 06:39 Cloudy with Light Rain 75 23.9 74 23.3 96 96 NE 25 41 29.60 1002 2 3 0.00 0.00
6:44 am 06:44 Cloudy with Rain 75 23.9 74 23.3 96 96 NE 25 41 29.60 1002 3 5 0.00 0.00
6:51 am 06:51 Cloudy with Light Rain 75 23.9 74 23.3 96 96 NE 29 46 29.59 1002 4 6 0.00 0.00
6:53 am 06:53 Cloudy with Light Rain 75 24 73 23 94 94 NE 32 52 29.59 1002 4 6 0.00 0.00
6:59 am 06:59 Cloudy with Light Rain 75 23.9 74 23.3 96 96 NE 29 46 29.59 1002 3 5 0.00 0.00
7:09 am 07:09 Cloudy with Light Rain 75 23.9 74 23.3 96 96 NE 22 35 29.59 1002 4 6 0.00 0.00
7:18 am 07:18 Mostly Cloudy with Light Rain 75 23.9 73 22.8 94 94 NE 29 46 29.58 1002 4 6 0.00 0.00
7:30 am 07:30 Mostly Cloudy with Light Rain 75 23.9 73 22.8 94 94 NE 25 41 29.58 1002 3 5 0.00 0.00
7:37 am 07:37 Mostly Cloudy with Light Rain 75 23.9 73 22.8 94 94 NE 28 44 29.58 1002 3 5 0.00 0.00
7:49 am 07:49 Cloudy with Light Rain 74 23.3 72 22.2 94 94 NE 31 50 29.59 1002 2 3 0.00 0.00
7:59 am 07:59 Cloudy with Light Rain 73 22.8 69 20.6 87 87 NE 30 48 29.57 1001 2 3 0.00 0.00
8:37 am 08:37 Cloudy with Rain 72 22.2 69 20.6 91 91 NE 30 48 29.58 1002 2 3 0.00 0.00
8:59 am 08:59 Cloudy with Light Rain 73 22.8 70 21.1 90 90 NE 31 50 29.57 1001 3 4 0.00 0.00
9:50 am 09:50 Cloudy with Light Rain 73 22.8 71 21.7 94 94 NE 26 43 29.56 1001 2 3 0.00 0.00
9:57 am 09:57 Cloudy with Rain 73 23 72 22 94 94 NNE 26 43 29.55 1001 2 3 0.00 0.00
9:59 am 09:59 Cloudy with Rain 73 22.8 71 21.7 94 94 NNE 29 46 29.55 1001 2 3 0.00 0.00
10:15 am 10:15 Cloudy with Rain 72 22.2 69 20.6 91 91 NNE 29 46 29.55 1001 2 3 0.00 0.00
10:55 am 10:55 Cloudy with Rain 72 22 70 21 94 94 NNE 26 43 29.55 1001 2 3 0.00 0.00
10:59 am 10:59 Cloudy with Light Rain 72 22.2 70 21.1 94 94 NNE 30 48 29.55 1001 2 3 0.00 0.00
11:39 am 11:39 Cloudy with Light Rain 73 22.8 70 21.1 90 90 NNE 29 46 29.55 1001 3 5 0.00 0.00
11:46 am 11:46 Cloudy with Light Rain 73 22.8 71 21.7 94 94 N 26 43 29.56 1001 3 4 0.00 0.00
11:57 am 11:57 Cloudy with Rain 73 23 72 22 94 94 N 29 46 29.55 1001 2 3 0.00 0.00
11:59 am 11:59 Cloudy with Light Rain 73 22.8 72 22.2 96 96 N 29 46 29.55 1001 2 3 0.00 0.00
12:08 pm 12:08 Cloudy with Light Rain 73 22.8 71 21.7 94 94 N 30 48 29.55 1001 3 4 0.00 0.00
12:15 pm 12:15 Cloudy with Light Rain 74 23.3 72 22.2 94 94 N 30 48 29.55 1001 3 4 0.00 0.00
12:29 pm 12:29 Cloudy with Light Rain 74 23.3 72 22.2 94 94 N 26 43 29.56 1001 3 5 0.00 0.00
12:55 pm 12:55 Cloudy with Light Rain 73 23 70 21 89 89 N 26 43 29.58 1002 4 6 0.00 0.00
12:59 pm 12:59 Cloudy with Light Rain 73 22.8 71 21.7 94 94 N 25 41 29.57 1002 4 6 0.00 0.00
1:40 pm 13:40 Cloudy with Light Rain 72 22.2 69 20.6 91 91 NNW 26 43 29.59 1002 4 6 0.00 0.00
1:52 pm 13:52 Cloudy with Light Rain 72 22.2 69 20.6 91 91 NNW 30 48 29.60 1002 7 11 0.00 0.00
1:59 pm 13:59 Cloudy with Light Rain 72 22.2 68 20 87 87 NNW 30 48 29.60 1003 8 13 0.00 0.00
2:32 pm 14:32 Cloudy 71 21.7 68 20 90 90 NNW 26 43 29.62 1003 8 13 0.00 0.00
2:49 pm 14:49 Cloudy 71 21.7 68 20 90 90 NNW 26 43 29.63 1003 10 16 0.00 0.00
2:56 pm 14:56 Cloudy 72 22 68 20 88 88 NNW 25 41 29.64 1004 10 16 0.00 0.00
2:59 pm 14:59 Cloudy 71 21.7 68 20 90 90 NNW 29 46 29.64 1004 10 16 0.00 0.00
3:59 pm 15:59 Cloudy 70 21.1 67 19.4 90 90 NW 22 35 29.66 1005 10 16 0.00 0.00
4:17 pm 16:17 Cloudy 70 21.1 67 19.4 90 90 NW 23 37 29.67 1005 10 16 0.00 0.00
4:46 pm 16:46 Cloudy 70 21.1 66 18.9 87 87 NW 21 33 29.70 1006 10 16 0.00 0.00
4:59 pm 16:59 Cloudy 70 21.1 66 18.9 87 87 NW 24 39 29.71 1006 10 16 0.00 0.00
5:59 pm 17:59 Cloudy 69 20.6 65 18.3 87 87 NW 20 31 29.75 1007 10 16 0.00 0.00
6:13 pm 18:13 Cloudy 70 21.1 65 18.3 84 84 NW 21 33 29.76 1008 10 16 0.00 0.00
6:59 pm 18:59 Cloudy 70 21.1 65 18.3 84 84 NW 20 31 29.78 1008 10 16 0.00 0.00
7:55 pm 19:55 Cloudy 70 21 30 -1 23 23 NNW 13 20 29.80 1009 10 16 0.00 0.00
7:59 pm 19:59 Mostly Cloudy 69 20.6 31 -0.6 24 24 NNW 15 24 29.80 1009 10 16 0.00 0.00
8:59 pm 20:59 Clear 69 20.6 30 -1.1 23 23 N 10 17 29.81 1010 10 16 0.00 0.00
9:32 pm 21:32 Partly Cloudy 68 20 28 -2.2 22 22 N 9 15 29.81 1009 10 16 0.00 0.00
9:59 pm 21:59 Partly Cloudy 68 20 28 -2.2 22 22 N 7 11 29.81 1010 10 16 0.00 0.00
10:59 pm 22:59 Partly Cloudy 68 20 28 -2.2 22 22 N 8 13 29.82 1010 10 16 0.00 0.00
11:59 pm 23:59 Partly Cloudy 68 20 28 -2.2 22 22 N 7 11 29.83 1010 10 16 0.00 0.00

Powered by AerisWeather